Eagle, AK

8:43 AM AKDT on October 14, 2019 (GMT -0800)
Eagle

Weather History for PAEG - September, 2019

Change the Weather History Date:

Friday, September 20, 2019

  Actual Average (WUND) Record (WUND)
Temperature  
Mean Temperature 42 °F -  
Max Temperature 52 °F - - (-1)
Min Temperature 32 °F - - (-1)
Degree Days  
Heating Degree Days 24    
Moisture  
Dew Point 40 °F    
Average Humidity 90    
Maximum Humidity 96    
Minimum Humidity 74    
Precipitation  
Precipitation 0.12 in - - ()
Sea Level Pressure  
Sea Level Pressure 29.35 in    
Wind  
Wind Speed 1 mph (SSE)    
Max Wind Speed 6 mph    
Max Gust Speed -    
Visibility 10 miles    
Events Rain    
Averages and records for this station are not official NWS values.
T = Trace of Precipitation, MM = Missing Value Source: NWS Daily Summary

Daily Weather History Graph

Daily Weather History Graph

Search for Another Location

Airport or City:

Astronomy

Sep. 20, 2019 Rise Set
Actual Time 7:01 AM AKDT 7:32 PM AKDT
Civil Twilight 6:11 AM AKDT 8:22 PM AKDT
Nautical Twilight 5:10 AM AKDT 9:22 PM AKDT
Astronomical Twilight 3:58 AM AKDT 10:33 PM AKDT
Moon 9:00 PM AKDT (9/20) 3:39 PM AKDT (9/20)
Length of Visible Light 14h 10m
Length of Day
12h 31m
Waning Gibbous, 63% of the Moon is Illuminated
Sep 20
Waning Gibbous
Sep 21
Last Quarter
Sep 28
New
Oct 5
First Quarter
Oct 13
Full

Hourly Weather History & Observations

Time (AKDT) Temp. Windchill Dew Point Humidity Pressure Visibility Wind Dir Wind Speed Gust Speed Precip Events Conditions
12:53 AM 33.1 °F - 32.0 °F 96% 29.62 in 10.0 mi Calm Calm - N/A   Scattered Clouds
1:31 AM 33.1 °F - 32.0 °F 96% 29.59 in 10.0 mi Calm Calm - N/A   Scattered Clouds
1:53 AM 33.1 °F - 32.0 °F 96% 29.60 in 10.0 mi Calm Calm - N/A   Scattered Clouds
2:53 AM 34.0 °F 31.0 °F 32.0 °F 92% 29.58 in 10.0 mi Variable 3.5 mph - N/A   Scattered Clouds
3:53 AM 33.1 °F - 32.0 °F 96% 29.56 in 10.0 mi Calm Calm - N/A   Scattered Clouds
4:53 AM 33.1 °F - 32.0 °F 96% 29.53 in 10.0 mi Calm Calm - N/A   Clear
5:53 AM 32.0 °F - 30.9 °F 96% 29.51 in 10.0 mi Calm Calm - N/A   Clear
6:53 AM 33.1 °F - 32.0 °F 96% 29.48 in 10.0 mi Calm Calm - N/A   Overcast
7:53 AM 35.1 °F - 34.0 °F 96% 29.45 in 10.0 mi Calm Calm - N/A   Overcast
8:53 AM 37.9 °F - 36.0 °F 93% 29.43 in 10.0 mi Calm Calm - N/A   Overcast
9:53 AM 41.0 °F - 39.0 °F 93% 29.39 in 10.0 mi Calm Calm - N/A   Overcast
10:53 AM 44.1 °F - 42.1 °F 93% 29.37 in 10.0 mi Calm Calm - N/A   Overcast
11:53 AM 48.9 °F - 45.0 °F 86% 29.35 in 8.0 mi SSE 4.6 mph - 0.02 in Rain Light Rain
12:53 PM 48.9 °F - 46.0 °F 90% 29.33 in 8.0 mi Variable 3.5 mph - 0.02 in Rain Light Rain
1:53 PM 50.0 °F - 46.9 °F 89% 29.30 in 10.0 mi Calm Calm - 0.01 in   Overcast
2:53 PM 51.1 °F - 46.0 °F 83% 29.27 in 10.0 mi Calm Calm - N/A   Overcast
3:53 PM 51.1 °F - 46.9 °F 86% 29.24 in 10.0 mi Variable 3.5 mph - N/A   Overcast
4:53 PM 51.1 °F - 43.0 °F 74% 29.22 in 10.0 mi SE 5.8 mph - N/A   Overcast
5:53 PM 51.1 °F - 43.0 °F 74% 29.20 in 10.0 mi Variable 3.5 mph - N/A   Overcast
6:53 PM 51.1 °F - 43.0 °F 74% 29.18 in 10.0 mi Calm Calm - N/A   Overcast
7:30 PM 48.9 °F - 44.1 °F 83% 29.15 in 10.0 mi Calm Calm - N/A   Overcast
7:53 PM 48.9 °F - 44.1 °F 83% 29.15 in 10.0 mi Calm Calm - N/A   Overcast
8:13 PM 48.0 °F - 44.1 °F 86% 29.12 in 10.0 mi SSW 4.6 mph - N/A   Overcast
8:53 PM 46.9 °F - 45.0 °F 93% 29.13 in 10.0 mi Calm Calm - 0.01 in   Overcast
9:53 PM 46.9 °F - 45.0 °F 93% 29.12 in 5.0 mi Calm Calm - 0.01 in Rain Light Rain
11:53 PM 46.0 °F - 45.0 °F 96% 29.10 in 7.0 mi Calm Calm - 0.05 in Rain Light Rain